Change the Weather History Date:

Tuesday, December 24, 2013

  Actual Average Record
Temperature  
Mean Temperature -2 °F -  
Max Temperature 10 °F 19 °F 39 °F (2005)
Min Temperature -13 °F 2 °F -25 °F (2004)
Degree Days  
Heating Degree Days 66    
Moisture  
Dew Point -1 °F    
Average Humidity 88    
Maximum Humidity 100    
Minimum Humidity 84    
Precipitation  
Precipitation 0.00 in - - ()
Sea Level Pressure  
Sea Level Pressure 30.23 in    
Wind  
Wind Speed 2 mph (SSW)    
Max Wind Speed 12 mph    
Max Gust Speed 17 mph    
Visibility 4 miles    
Events Snow    
Averages and records for this station are not official NWS values.
T = Trace of Precipitation, MM = Missing Value Source: NWS Daily Summary

Daily Weather History Graph

Daily Weather History Graph

Search for Another Location

Airport or City:

Trip Planner

Search our weather history database for the weather conditions in past years. The results will help you decide how hot, cold, wet, or windy it might be!

Date:

Astronomy

Dec. 24, 2013 Rise Set
Actual Time 7:51 AM CST 4:19 PM CST
Civil Twilight 7:15 AM CST 4:55 PM CST
Nautical Twilight 6:36 AM CST 5:34 PM CST
Astronomical Twilight 5:58 AM CST 6:12 PM CST
Moon 11:56 PM CST (12/24) 11:19 AM CST (12/24)
Length of Visible Light 9h 40m
Length of Day
8h 28m
Waning Gibbous, 58% of the Moon is Illuminated
Dec 24
Waning Gibbous
Dec 25
Last Quarter
Jan 1
New
Jan 7
First Quarter
Jan 15
Full

Hourly Weather History & Observations

Time (CST) Temp. Windchill Dew Point Humidity Pressure Visibility Wind Dir Wind Speed Gust Speed Precip Events Conditions
12:13 AM -7.6 °F - -9.4 °F 92% 30.36 in 5.0 mi Calm Calm - N/A Snow Light Snow
12:33 AM -9.4 °F - -11.2 °F 92% 30.36 in 5.0 mi Calm Calm - N/A Snow Light Snow
12:53 AM -9.4 °F - -13.0 °F 84% 30.36 in 10.0 mi Calm Calm - N/A Snow Light Snow
1:14 AM -11.2 °F - -14.8 °F 84% 30.35 in 10.0 mi Calm Calm - N/A   Clear
1:33 AM -11.2 °F - -14.8 °F 84% 30.35 in 4.0 mi Calm Calm - N/A   Clear
1:53 AM -11.2 °F - -14.8 °F 84% 30.35 in 4.0 mi Calm Calm - N/A Snow Light Snow
2:13 AM -11.2 °F - -14.8 °F 84% 30.34 in 2.0 mi Calm Calm - N/A Snow Light Snow
2:33 AM -11.2 °F - -14.8 °F 84% 30.35 in 1.2 mi Calm Calm - N/A Snow Light Snow
2:53 AM -13.0 °F - -16.6 °F 84% 30.35 in 1.8 mi Calm Calm - N/A Snow Light Snow
3:13 AM -11.2 °F - -14.8 °F 84% 30.35 in 2.0 mi Calm Calm - N/A Snow Light Snow
3:33 AM -11.2 °F - -14.8 °F 84% 30.34 in 2.5 mi Calm Calm - N/A Snow Light Snow
3:53 AM -11.2 °F - -14.8 °F 84% 30.33 in 2.5 mi Calm Calm - N/A Snow Light Snow
4:13 AM -9.4 °F - -11.2 °F 92% 30.32 in 5.0 mi Calm Calm - N/A Snow Light Snow
4:33 AM -7.6 °F - -9.4 °F 92% 30.32 in 5.0 mi Calm Calm - N/A Snow Light Snow
4:53 AM -5.8 °F - -9.4 °F 84% 30.33 in 4.0 mi Calm Calm - N/A Snow Light Snow
5:13 AM -5.8 °F - -9.4 °F 84% 30.33 in 3.0 mi Calm Calm - N/A Snow Light Snow
5:33 AM -5.8 °F - -7.6 °F 92% 30.32 in 4.0 mi Calm Calm - N/A Snow Light Snow
5:53 AM -4.0 °F - -7.6 °F 85% 30.32 in 2.5 mi Calm Calm - N/A Snow Light Snow
6:13 AM -2.2 °F - -5.8 °F 85% 30.31 in 2.5 mi Calm Calm - N/A Snow Light Snow
6:33 AM -2.2 °F - -5.8 °F 85% 30.32 in 2.0 mi Calm Calm - N/A Snow Light Snow
6:53 AM -2.2 °F - -5.8 °F 85% 30.31 in 4.0 mi Calm Calm - N/A Snow Light Snow
7:13 AM -2.2 °F - -4.0 °F 92% 30.31 in 4.0 mi Calm Calm - N/A Snow Light Snow
7:33 AM -2.2 °F - -5.8 °F 85% 30.31 in 2.5 mi Calm Calm - N/A Snow Light Snow
7:54 AM -0.4 °F - -2.2 °F 92% 30.31 in 1.8 mi Calm Calm - N/A Snow Light Snow
8:13 AM -0.4 °F - -2.2 °F 92% 30.30 in 1.5 mi Calm Calm - N/A Snow Light Snow
8:33 AM -0.4 °F - -2.2 °F 92% 30.30 in 1.0 mi Calm Calm - N/A Snow Light Snow
8:53 AM 3.2 °F - 1.4 °F 92% 30.30 in 1.8 mi Calm Calm - N/A Snow Light Snow
9:13 AM 5.0 °F - 3.2 °F 92% 30.31 in 1.0 mi Calm Calm - N/A Snow Light Snow
9:34 AM 5.0 °F -5.6 °F 3.2 °F 92% 30.30 in 1.0 mi SSW 5.8 mph - N/A Snow Light Snow
9:53 AM 5.0 °F -2.1 °F 3.2 °F 92% 30.30 in 1.0 mi SSW 3.5 mph - N/A Snow Light Snow
10:13 AM 3.2 °F -6.2 °F 1.4 °F 92% 30.29 in 1.0 mi SSW 4.6 mph - N/A Snow Light Snow
10:33 AM 5.0 °F -5.6 °F 1.4 °F 85% 30.30 in 1.0 mi SSW 5.8 mph - N/A Snow Light Snow
10:53 AM 5.0 °F -9.1 °F 1.4 °F 85% 30.29 in 1.5 mi SSW 9.2 mph - N/A Snow Light Snow
11:13 AM 5.0 °F -5.6 °F 1.4 °F 85% 30.29 in 2.0 mi SSW 5.8 mph - N/A Snow Light Snow
11:33 AM 5.0 °F -6.9 °F 1.4 °F 85% 30.28 in 3.0 mi SSW 6.9 mph - N/A Snow Light Snow
11:53 AM 5.0 °F -6.9 °F 1.4 °F 85% 30.27 in 2.0 mi SSW 6.9 mph - N/A Snow Light Snow
12:13 PM 5.0 °F -2.1 °F 1.4 °F 85% 30.26 in 1.8 mi SSW 3.5 mph - N/A Snow Light Snow
12:33 PM 5.0 °F -4.1 °F 1.4 °F 85% 30.24 in 3.0 mi SSW 4.6 mph - N/A Snow Light Snow
12:53 PM 5.0 °F -5.6 °F 1.4 °F 85% 30.23 in 2.5 mi South 5.8 mph - N/A Snow Light Snow
1:13 PM 5.0 °F -4.1 °F 1.4 °F 85% 30.22 in 1.5 mi SSW 4.6 mph - N/A Snow Light Snow
1:34 PM 5.0 °F -5.6 °F 3.2 °F 92% 30.21 in 1.5 mi SSW 5.8 mph - N/A Snow Light Snow
1:53 PM 5.0 °F -4.1 °F 3.2 °F 92% 30.21 in 2.0 mi SW 4.6 mph - N/A Snow Light Snow
2:13 PM 6.8 °F -3.5 °F 3.2 °F 85% 30.21 in 5.0 mi SSW 5.8 mph - N/A Snow Light Snow
2:33 PM 5.0 °F -2.1 °F 3.2 °F 92% 30.20 in 5.0 mi SSW 3.5 mph - N/A Snow Light Snow
2:53 PM 6.8 °F -0.1 °F 3.2 °F 85% 30.19 in 10.0 mi SSW 3.5 mph - N/A Snow Light Snow
3:13 PM 6.8 °F - 3.2 °F 85% 30.19 in 10.0 mi Calm Calm - N/A Snow Light Snow
3:33 PM 6.8 °F - 3.2 °F 85% 30.20 in 10.0 mi Calm Calm - N/A   Clear
3:54 PM 6.8 °F - 3.2 °F 85% 30.19 in 10.0 mi Calm Calm - N/A   Scattered Clouds
4:13 PM 6.8 °F - 3.2 °F 85% 30.18 in 10.0 mi Calm Calm - N/A Snow Light Snow
4:33 PM 6.8 °F - 3.2 °F 85% 30.18 in 5.0 mi Calm Calm - N/A Snow Light Snow
4:53 PM 6.8 °F - 3.2 °F 85% 30.17 in 7.0 mi Calm Calm - N/A Snow Light Snow
5:13 PM 6.8 °F - 3.2 °F 85% 30.16 in 10.0 mi Calm Calm - N/A   Clear
5:33 PM 6.8 °F -0.1 °F 5.0 °F 92% 30.15 in 10.0 mi SSW 3.5 mph - N/A   Clear
5:53 PM 10.4 °F -2.4 °F 6.8 °F 85% 30.14 in 10.0 mi South 9.2 mph - N/A   Clear
6:13 PM 10.4 °F -3.3 °F 6.8 °F 85% 30.13 in 10.0 mi South 10.4 mph 16.1 mph N/A   Clear
6:33 PM 10.4 °F -0.4 °F 6.8 °F 85% 30.13 in 4.0 mi South 6.9 mph - N/A Snow Light Snow
6:53 PM 10.4 °F -2.4 °F 8.6 °F 92% 30.12 in 5.0 mi South 9.2 mph - N/A Snow Light Snow
7:13 PM 10.4 °F -3.3 °F 8.6 °F 92% 30.11 in 2.0 mi South 10.4 mph - N/A Snow Light Snow
7:33 PM 10.4 °F -3.3 °F 8.6 °F 92% 30.11 in 1.0 mi South 10.4 mph 17.3 mph N/A Snow Snow
7:53 PM 10.4 °F -0.4 °F 8.6 °F 92% 30.10 in 1.0 mi SSW 6.9 mph - N/A Snow Snow
8:13 PM 8.6 °F -3.7 °F 8.6 °F 100% 30.10 in 0.8 mi SSW 8.1 mph 16.1 mph N/A Snow Snow
8:33 PM 8.6 °F -6.3 °F 6.8 °F 92% 30.09 in 2.0 mi SSW 11.5 mph - N/A Snow Light Snow
8:53 PM 8.6 °F -3.7 °F 6.8 °F 92% 30.09 in 3.0 mi SSW 8.1 mph - N/A Snow Light Snow
9:13 PM 8.6 °F -4.7 °F 6.8 °F 92% 30.08 in 2.0 mi SSW 9.2 mph - N/A Snow Light Snow
9:33 PM 8.6 °F -3.7 °F 6.8 °F 92% 30.07 in 1.8 mi SSW 8.1 mph - N/A Snow Light Snow
9:53 PM 8.6 °F -2.6 °F 6.8 °F 92% 30.07 in 3.0 mi SW 6.9 mph - N/A Snow Light Snow
10:13 PM 8.6 °F -4.7 °F 6.8 °F 92% 30.06 in 5.0 mi SSW 9.2 mph - N/A Snow Light Snow
10:33 PM 8.6 °F -1.3 °F 6.8 °F 92% 30.05 in 10.0 mi SSW 5.8 mph - N/A Snow Light Snow
10:53 PM 8.6 °F -2.6 °F 6.8 °F 92% 30.05 in 7.0 mi SW 6.9 mph - N/A Snow Light Snow
11:13 PM 8.6 °F -2.6 °F 6.8 °F 92% 30.04 in 4.0 mi SSW 6.9 mph - N/A Snow Light Snow
11:33 PM 8.6 °F -1.3 °F 5.0 °F 85% 30.03 in 3.0 mi SW 5.8 mph - N/A Snow Light Snow
11:53 PM 8.6 °F -2.6 °F 5.0 °F 85% 30.03 in 5.0 mi SW 6.9 mph - N/A Snow Light Snow